METEOR 2-12 DEB

Satellite information

Favourite Embed

Satellite Type and Status

DEBRISIN ORBIT

Key statistics

Satellite METEOR 2-12 DEB at a glance.

Uptime

14702

Days in orbit

Revolutions

≈ 14.0

Per day

Orbit

LEO

Low Earth Orbit

Inclination

82.5

Latest

Satellite identification and parameters

Extended collection of information and parameters for METEOR 2-12 DEB.

Object identification

Identified? True

Debris? True

Object name: METEOR 2-12 DEB

International designator: 1985-013D

Object number (NORAD): 45518

Object ID (CCSDS): 45518

Country: COMMONWEALTH OF INDEPENDENT STATES (CIS)

Current information (Y/N): Y

RCS size: SMALL

Orbital parameters

Period: 102.648 minutes

Inclination: 82.5263 deg

SMA: 7262.062 km

Apoapsis: 903.007 km

Periapsis: 864.847 km

RAAN: 246.2734 deg

Eccentricy: 0.0026274

Argument of periapsis: 178.7598 deg

Mean anomaly: 181.3643 deg

Mean motion: 14.02855154 rev/day

Mean motion (dot): 0.00005123 rev/day2

B* drag term: 0.0032895 1/REarth

Two-line elements (TLE)

Creation date: May 3, 2025, 5:28 p.m.

Reference frame: TEME

Reference center: EARTH

Epoch: May 3, 2025, 2:24 p.m. UTC

TLE line 0: 0 METEOR 2-12 DEB

TLE line 1: 1 45518U 85013D 25123.60068412 .00005123 00000-0 32895-2 0 9990

TLE line 2: 2 45518 82.5263 246.2734 0026274 178.7598 181.3643 14.02855154 63432

Live tracking on map

Real-time ground track for satellite METEOR 2-12 DEB.

In-orbit conjunctions

A list of the most updated potential collisions computed for object METEOR 2-12 DEB.

Target Orbit TCA Probability of collision Miss distance Type
SL-3 R/B LEO 2025-03-31 21:00:39 0.0002201911 422.0 (m) ROCKET BODY

Associated space launch

Film-return reconnaissance satellite

METEOR 2-12 DEB was lifted into orbit during the mission ‘Soyuz U | Zenit-8 11’, on board a Soyuz U space rocket.

The launch took place on Feb. 6, 1985, 11 a.m. from 16/2.

For more information about the launch, click the button.

Launch to space Soyuz U | Zenit-8 11
Soyuz U | Zenit-8 11

Agency: N/A

Status: Launch Successful

Launch date: Feb. 6, 1985, 11 a.m. UTC

Rocket: Soyuz U

Launch pad: 16/2

Location: Plesetsk Cosmodrome, Russian Federation

...

Latest news about this satellite

There are no fresh news available about this satellite. Check back as we update our databases every day.


Newsletter sign-up

Weekly statistics, charts and insights to help you stay on top of the space industry.